Vorticity
nan nan nan nan nan nan nan nan nan nan nan nan nan nan nan nan nan nan nan nan nan nan nan nan nan nan nan nan nan nan nan nan nan nan nan nan nan nan nan nan nan nan nan
nan 12 9 6 6 5 4 3 3 4 5 6 5 3 3 4 4 5 5 5 5 6 6 6 6 6 6 5 4 4 5 5 5 5 4 6 6 5 4 4 5 7 nan
nan 8 8 8 5 5 5 4 5 5 6 6 3 4 4 4 5 5 5 6 6 6 6 6 6 6 7 7 7 7 6 6 9 12 6 4 5 7 8 6 5 8 nan
nan 6 9 9 6 5 5 5 6 7 5 5 5 5 5 5 5 5 6 6 6 6 6 6 6 7 7 7 7 7 7 7 9 9 6 7 5 5 9 8 6 8 nan
nan 6 10 9 6 6 6 7 7 5 5 5 6 5 5 6 6 5 6 6 6 6 6 6 6 6 6 6 9 10 7 6 6 5 7 6 7 7 7 8 8 7 nan
nan 8 10 7 5 6 6 8 4 4 5 5 6 6 6 6 5 6 6 6 6 6 6 7 7 5 6 11 13 9 6 4 3 5 7 7 10 11 7 7 7 6 nan
nan 8 10 10 7 6 6 6 7 5 5 5 6 6 6 6 6 6 6 6 6 6 7 8 7 6 8 12 9 5 4 4 4 6 7 7 11 7 5 5 5 5 nan
nan 7 10 10 7 6 7 6 6 6 6 6 6 6 6 6 6 6 6 6 6 7 8 8 6 7 10 8 5 3 4 6 7 6 6 7 11 6 6 4 3 4 nan
nan 6 7 6 5 7 5 7 7 7 6 6 6 6 6 5 6 6 6 6 6 7 8 7 7 9 9 6 4 4 5 7 6 6 6 7 7 7 5 4 4 4 nan
nan 7 5 6 6 5 7 8 7 7 7 7 6 6 6 5 6 6 5 6 7 7 7 4 8 9 5 5 5 5 4 2 7 7 7 13 8 5 4 5 4 5 nan
nan 6 6 6 6 6 7 8 8 6 3 2 3 3 2 5 5 6 7 7 8 6 4 3 7 7 2 1 1 3 2 4 6 7 6 11 6 5 4 4 6 6 nan
nan 4 6 6 7 6 5 5 5 3 3 4 4 3 5 7 6 6 7 6 4 3 1 4 6 2 -0 2 2 2 4 7 6 7 10 6 5 4 5 6 7 8 nan
nan 6 10 6 5 5 5 4 6 6 7 7 7 6 7 5 7 7 5 6 4 3 4 5 4 4 6 7 7 6 8 7 6 6 8 7 8 8 8 7 7 6 nan
nan 7 7 6 4 5 6 6 7 7 6 7 7 6 6 7 7 7 7 7 7 6 8 7 7 8 7 8 7 7 8 8 8 6 5 8 9 8 8 7 6 6 nan
nan 10 6 6 5 5 5 7 8 8 8 7 7 6 6 7 7 7 7 8 7 8 6 7 8 7 7 6 7 7 7 8 8 8 6 4 8 7 6 6 6 6 nan
nan 11 6 6 5 5 5 7 7 7 8 8 8 8 7 7 7 8 8 7 7 8 9 8 8 7 7 7 8 7 7 6 7 8 7 4 5 7 6 6 6 6 nan
nan 19 11 5 7 6 5 5 6 7 8 8 9 9 8 8 8 7 7 8 7 8 8 7 7 8 7 8 8 7 6 7 7 6 7 6 2 4 6 7 6 6 nan
nan 1 11 16 13 6 6 6 8 9 8 8 9 9 9 8 8 7 7 8 8 8 7 7 6 7 7 8 7 8 8 7 6 6 6 6 6 4 5 5 5 6 nan
nan 0 -1 11 12 14 8 8 9 9 8 8 8 9 10 8 7 7 8 8 8 8 8 7 7 8 7 9 9 7 8 9 7 7 7 6 6 6 5 4 4 3 nan
nan 10 4 2 7 12 11 7 8 8 8 8 8 9 9 8 8 7 8 9 8 8 7 9 7 8 10 7 8 7 8 8 9 8 7 6 7 6 6 5 4 5 nan
nan 11 8 6 3 1 9 8 7 7 8 9 9 9 8 9 8 7 7 7 8 9 9 8 7 7 8 9 7 7 9 9 10 8 8 8 8 8 7 5 5 6 nan
nan 9 7 6 7 3 4 5 7 8 10 9 9 9 8 8 8 8 8 7 9 8 7 7 9 8 7 9 9 8 8 7 9 10 10 10 8 7 8 8 7 7 nan
nan 7 9 8 5 7 6 3 5 8 10 7 9 9 10 9 8 8 8 8 7 8 8 8 8 9 7 7 10 9 9 9 7 9 10 10 9 8 9 10 8 8 nan
nan 9 9 9 8 9 6 7 8 4 6 8 9 9 9 9 8 7 7 8 7 8 8 8 8 8 9 8 6 8 10 12 8 8 8 8 10 10 8 9 9 10 nan
nan 9 9 10 8 9 7 6 5 6 8 8 9 11 8 8 8 7 8 7 7 8 9 9 8 8 8 10 8 8 6 8 10 10 7 7 10 10 9 9 9 9 nan
nan nan nan nan nan nan nan nan nan nan nan nan nan nan nan nan nan nan nan nan nan nan nan nan nan nan nan nan nan nan nan nan nan nan nan nan nan nan nan nan nan nan nan
CAPE
144 317 1025 555 320 298 609 1080 560 435 313 433 633 582 356 165 140 127 33 4 0 3 2 10 21 20 52 161 73 102 94 38 34 34 44 274 160 116 121 147 165 13 47
213 475 987 845 441 297 854 773 551 745 761 1161 828 647 243 100 25 0 0 0 0 0 0 0 0 0 0 0 0 0 0 0 0 0 0 64 343 234 226 211 197 236 276
337 502 578 898 769 745 1008 564 439 592 960 837 449 192 74 7 0 0 0 0 0 0 0 0 0 0 0 0 0 0 0 0 0 0 0 10 171 322 308 328 275 282 308
462 487 475 955 882 932 955 714 761 1013 831 399 240 65 2 0 0 0 0 1 1 2 0 0 0 0 0 0 0 0 0 0 0 0 0 11 29 117 365 289 269 342 382
537 468 490 1049 1072 1094 1082 1135 1173 785 518 276 41 0 0 1 0 1 2 2 3 3 0 0 0 1 7 1 0 0 0 5 10 2 0 6 17 112 206 260 273 321 271
581 501 888 1205 1383 1319 1558 1402 791 400 217 18 0 1 2 2 5 5 2 3 3 1 1 1 0 6 1 0 0 0 1 0 0 0 0 1 24 168 269 163 82 52 54
615 561 980 1546 1831 1675 1411 960 495 199 10 1 1 3 4 5 5 2 2 4 2 0 2 1 2 8 2 30 24 17 0 0 0 0 0 23 61 140 105 79 67 69 77
629 835 1224 1573 1529 1308 1013 599 178 7 2 1 3 5 6 6 3 2 2 2 0 2 0 1 13 1 23 28 11 0 0 0 0 0 0 5 92 50 53 61 61 51 40
809 1039 1342 1022 841 708 514 296 94 5 7 4 8 7 4 2 1 1 0 0 0 0 0 7 5 0 14 10 5 3 0 0 0 0 0 0 81 59 60 40 31 21 20
1005 893 909 646 359 229 31 34 7 9 13 18 16 9 7 4 3 0 0 0 0 0 0 3 2 2 0 0 0 0 0 0 0 0 0 1 50 48 41 33 13 10 11
834 751 682 369 65 1 0 1 10 13 12 7 0 0 0 0 0 0 0 0 0 0 0 0 0 0 0 0 0 0 0 0 0 0 4 54 44 42 24 21 12 7 7
539 659 337 2 0 0 0 0 0 0 0 0 0 0 0 0 0 0 0 0 0 0 0 0 0 0 0 0 0 0 0 0 0 0 0 26 17 12 6 2 7 9 6
576 387 2 0 0 0 0 0 0 0 0 0 0 0 0 0 0 0 0 0 0 0 0 0 0 0 0 0 0 0 0 0 0 0 0 0 1 4 3 4 7 7 8
272 32 0 0 0 0 0 0 0 0 0 0 0 0 0 0 0 0 0 0 0 0 0 0 0 0 0 0 0 0 0 0 0 0 0 0 0 2 5 5 8 10 9
5 0 0 0 0 0 0 0 0 0 0 0 0 0 0 0 0 0 0 0 0 0 0 0 0 0 0 0 0 0 0 0 0 0 0 0 0 1 4 7 8 9 9
28 0 0 0 0 0 0 0 0 0 0 0 0 0 0 0 0 0 0 0 0 0 0 0 0 0 0 0 0 0 0 0 0 0 0 0 0 0 0 0 1 3 7
49 3 0 0 0 0 0 0 0 0 0 0 0 0 0 0 0 0 0 0 0 0 0 0 0 0 0 0 0 0 0 0 0 0 0 0 0 0 0 0 0 0 0
36 12 14 1 0 0 0 0 0 0 0 0 0 0 0 0 0 0 0 0 0 0 0 0 0 0 0 0 0 0 0 0 0 0 0 0 0 0 0 0 0 0 0
4 1 5 21 4 0 0 0 0 0 0 0 0 0 0 0 0 0 0 0 0 0 0 0 0 0 0 0 0 0 0 0 0 0 0 0 0 0 0 0 0 0 0
1 1 1 0 1 0 0 0 0 0 0 0 0 0 0 0 0 0 0 0 0 0 0 0 0 0 0 0 0 0 0 0 0 0 0 0 0 0 0 0 0 0 0
1 1 2 1 3 0 0 0 0 0 0 0 0 0 0 0 0 0 0 0 0 0 0 0 0 0 0 0 0 0 0 0 0 0 0 0 0 0 0 0 0 0 0
1 3 2 8 5 0 0 0 0 0 0 0 0 0 0 0 0 0 0 0 0 0 0 0 0 0 0 0 0 0 0 0 0 0 0 0 0 0 0 0 0 0 0
1 1 1 1 2 2 2 5 2 0 0 0 0 0 0 0 0 0 0 0 0 0 0 0 0 0 0 0 0 0 0 0 0 0 0 0 0 0 0 0 0 0 0
1 1 1 1 3 5 4 4 1 0 0 0 0 0 0 0 0 0 0 0 0 0 0 0 0 0 0 0 0 0 0 0 0 0 0 0 0 0 0 0 0 0 0
1 1 1 1 1 2 2 2 3 0 0 0 0 0 0 0 0 0 0 0 0 0 0 0 0 0 0 0 0 0 0 0 0 0 0 0 0 0 0 0 0 0 0
1 1 1 1 1 2 3 2 2 0 0 0 0 0 0 0 0 0 0 0 0 0 0 0 0 0 0 0 0 0 0 0 0 0 0 0 0 0 0 0 0 0 0